CAPE
0 0 0 0 0 0 0 0 0 0 0 0 0 0 0 0 0 0 0 0 0 0 0 0 0 0 0 0 0 0 0 0 0 0 0 0 4 2 48 48 275 136 104 126 123 129 114
0 0 0 0 0 0 0 0 0 0 0 0 0 0 0 0 0 0 0 0 0 0 0 0 0 0 0 0 0 0 0 0 0 0 0 0 0 19 84 173 213 266 196 228 243 211 146
0 0 0 0 0 0 0 0 0 0 0 0 0 0 0 0 0 0 0 0 0 0 0 0 0 0 0 0 0 0 0 0 0 0 0 0 0 0 42 38 64 20 207 269 287 357 285
0 0 0 0 0 0 0 0 0 0 0 0 0 0 0 0 0 0 0 0 0 0 0 0 0 0 0 0 0 0 0 0 0 0 0 0 0 0 3 2 4 5 2 41 349 367 25
0 0 0 0 0 0 0 0 0 0 0 0 0 0 0 0 0 0 0 0 0 0 0 0 0 0 0 0 0 0 0 0 0 0 0 0 0 0 0 48 19 2 17 94 182 462 251
0 0 0 0 0 0 0 0 0 0 0 0 0 0 0 0 0 0 0 0 0 0 0 0 0 0 0 0 0 0 0 0 0 0 0 0 0 0 0 42 64 0 9 128 125 463 494
0 0 0 0 0 0 0 0 0 0 0 0 0 0 0 0 0 0 0 0 0 0 0 0 0 0 0 0 0 0 0 0 0 0 0 0 0 0 0 7 14 7 64 51 112 191 196
0 0 0 0 0 0 0 0 0 0 0 0 0 0 0 0 0 0 0 0 0 0 0 0 0 0 0 0 0 0 0 0 0 0 0 0 0 0 0 20 8 2 25 2 37 88 77
0 0 0 0 0 0 0 0 0 0 0 0 0 0 0 0 0 0 0 0 0 0 0 0 0 0 0 0 0 0 0 0 0 0 0 0 0 0 0 0 41 1 15 73 121 97 144
0 0 0 0 0 0 0 0 0 0 0 0 0 0 0 0 0 0 0 0 0 0 0 0 0 0 0 0 0 0 0 0 0 0 0 0 0 0 0 0 1 12 4 8 33 175 8
0 0 0 0 0 0 0 0 0 0 0 0 0 0 0 0 0 0 0 0 0 0 0 0 0 0 0 0 0 0 0 0 0 0 0 0 0 0 0 0 0 0 17 5 92 22 14
0 0 1 0 0 0 0 0 0 0 0 0 0 0 0 0 0 0 0 0 0 0 0 0 0 0 0 0 0 0 0 0 0 0 0 0 0 0 0 0 0 0 0 0 0 10 21
2 2 0 0 0 0 0 0 0 0 0 0 0 0 0 0 0 0 0 0 0 0 0 0 0 0 0 0 0 0 0 0 0 0 0 0 0 0 0 0 0 0 0 0 0 0 31
2 1 0 0 0 0 0 0 0 0 0 0 0 0 0 0 0 0 0 0 0 0 0 0 0 0 0 0 0 0 0 0 0 0 0 0 0 0 0 0 0 0 0 0 0 0 0
0 0 0 0 0 0 0 0 0 0 0 0 0 0 0 0 0 0 0 0 0 0 0 0 0 0 0 0 0 0 0 0 0 0 0 0 0 0 0 0 0 0 0 0 0 0 0
0 0 0 0 0 0 0 0 0 0 0 0 0 0 0 0 0 0 0 0 0 0 0 0 0 0 0 0 0 0 0 0 0 0 0 0 0 0 0 0 0 0 0 0 0 0 0
0 1 0 0 0 0 0 0 0 0 0 0 0 0 0 0 0 0 0 0 0 0 0 0 0 0 0 0 1 0 0 0 0 0 0 0 0 0 0 0 0 0 0 0 0 0 0
0 0 0 0 0 0 0 0 0 0 0 0 0 0 0 0 0 0 0 0 0 0 0 0 0 0 0 0 0 2 0 0 0 0 0 0 0 0 0 0 0 0 0 0 0 0 0
0 0 0 0 0 0 0 0 0 0 0 0 0 0 0 0 0 0 0 0 0 0 0 0 0 0 0 0 0 0 1 1 0 0 0 0 0 0 0 0 0 0 0 0 0 0 0
0 0 0 0 0 0 0 0 0 0 0 0 0 0 0 0 0 0 0 0 0 0 0 0 0 0 0 0 0 0 0 2 0 0 0 0 0 0 0 0 0 0 0 0 0 0 0
0 0 0 0 2 0 0 0 0 0 0 0 0 0 0 0 0 0 0 0 0 0 0 0 0 0 0 0 0 2 61 281 0 0 0 0 0 0 0 0 0 0 0 0 0 0 0
0 0 0 0 0 0 0 0 0 0 0 0 0 0 0 0 0 0 0 0 0 0 0 0 0 0 0 0 0 159 225 266 190 0 0 0 0 0 0 0 0 0 0 0 0 0 0
0 0 2 0 0 0 1 0 0 0 0 0 0 0 0 0 0 0 0 0 0 0 0 0 1 0 5 0 8 33 70 98 107 145 109 0 0 0 0 0 0 0 0 0 0 0 0
0 0 1 1 0 1 3 0 0 0 4 6 0 0 0 0 0 0 0 0 0 0 0 0 5 0 2 0 0 7 20 45 79 110 36 11 16 0 0 0 0 0 0 0 0 0 0
1 1 0 1 0 0 5 3 0 0 0 3 0 0 0 0 0 0 0 0 0 0 0 0 0 0 0 0 0 0 11 3 29 29 0 0 0 2 0 0 0 0 0 12 15 161 74
1 3 2 2 1 1 9 9 0 0 0 0 0 0 0 0 0 0 0 0 0 0 0 0 0 0 0 0 0 0 7 9 1 0 0 0 0 9 0 0 0 0 69 60 82 139 168
0 3 3 1 3 9 14 13 6 2 0 5 0 0 0 0 0 0 0 0 0 0 0 0 0 0 0 0 0 0 0 23 4 24 84 82 36 0 0 0 15 91 113 113 125 191 577
1 2 0 3 9 7 9 12 12 2 3 2 0 0 0 2 0 0 0 0 0 0 0 0 0 0 0 0 0 0 0 0 1 77 48 31 5 34 3 2 9 75 29 29 29 95 473
0 4 3 10 10 6 11 14 9 9 1 4 0 1 0 0 0 0 0 0 0 0 0 0 0 0 0 42 14 75 117 167 232 132 26 5 53 33 59 158 126 48 22 0 0 0 309
CIN
0 0 0 0 0 0 0 0 0 0 0 0 0 0 0 0 0 0 0 0 0 0 0 0 0 0 0 0 0 0 0 0 0 0 0 0 -74 -69 -93 -131 -51 -21 -30 -37 -18 -21 -31
0 0 0 0 0 0 0 0 0 0 0 0 0 0 0 0 0 0 0 0 0 0 0 0 0 0 0 0 0 0 0 0 0 0 0 0 0 -70 -50 -64 -90 -81 -38 -44 -17 -31 -13
0 0 0 0 0 0 0 0 0 0 0 0 0 0 0 0 0 0 0 0 0 0 0 0 0 0 0 0 0 0 0 0 0 0 0 0 0 0 -72 -99 -225 -186 -113 -49 -35 -37 -34
0 0 0 0 0 0 0 0 0 0 0 0 0 0 0 0 0 0 0 0 0 0 0 0 0 0 0 0 0 0 0 0 0 0 0 0 0 0 -9 -55 -99 -32 -52 -152 -50 -36 -75
0 0 0 0 0 0 0 0 0 0 0 0 0 0 0 0 0 0 0 0 0 0 0 0 0 0 0 0 0 0 0 0 0 0 0 0 0 0 0 -117 -220 -228 -61 -186 -154 -42 -83
-2 0 0 0 0 0 0 0 0 0 0 0 0 0 0 0 0 0 0 0 0 0 0 0 0 0 0 0 0 0 0 0 0 0 0 0 0 0 0 -104 -62 -7 -207 -100 -114 -53 -52
0 0 0 0 0 0 0 0 0 0 0 0 0 0 0 0 0 0 0 0 0 0 0 0 0 0 0 0 0 0 0 0 0 0 0 0 0 0 0 -47 -103 -127 -92 -120 -46 -58 -94
0 0 0 0 0 0 0 0 0 0 0 0 0 0 0 0 0 0 0 0 0 0 0 0 0 0 0 0 0 0 0 0 0 0 0 0 0 0 0 -113 -143 -25 -134 -49 -109 -66 -45
0 0 0 0 0 0 0 0 0 0 0 0 0 0 0 0 0 0 0 0 0 0 0 0 0 0 0 0 0 0 0 0 0 0 0 0 0 0 0 0 -92 -6 -97 -125 -62 -19 -52
0 -1 0 0 0 0 0 0 0 0 0 0 0 0 0 0 0 0 0 0 0 0 0 0 0 0 0 0 0 0 0 0 0 0 0 0 0 0 0 0 -10 -86 -136 -71 -146 -11 -3
0 0 0 0 0 0 0 0 0 0 0 0 0 0 0 0 0 0 0 0 0 0 0 0 0 0 0 0 0 0 0 0 0 0 0 0 0 0 0 0 0 0 -129 -137 -42 -51 -50
0 0 -1 0 0 0 0 0 0 0 0 0 0 0 0 0 0 0 0 0 0 0 0 0 0 0 0 0 0 0 0 0 0 0 0 0 0 0 0 0 0 0 0 0 0 -72 -54
0 0 -1 0 0 0 0 0 0 0 0 0 0 0 0 0 0 0 0 0 0 0 0 0 0 0 0 0 0 0 0 0 0 0 0 0 0 0 0 0 0 0 0 0 0 0 -52
0 -1 0 0 0 0 0 0 0 0 0 0 0 0 0 0 0 0 0 0 0 0 0 0 0 0 0 0 0 0 0 0 0 0 0 0 0 0 0 0 0 0 0 0 0 0 -9
0 0 0 0 0 0 0 0 0 0 0 0 0 0 0 0 0 0 0 0 0 0 0 0 0 0 0 0 0 0 0 0 0 0 0 0 0 0 0 0 0 0 0 0 0 0 0
0 0 0 0 0 0 0 0 0 0 0 0 0 0 0 0 0 0 0 0 0 0 0 0 0 0 0 0 0 0 0 0 0 0 0 0 0 0 0 0 0 0 0 0 0 0 0
0 -2 0 0 0 0 0 0 0 0 0 0 0 0 0 0 0 0 0 0 0 0 0 0 0 0 0 0 -16 0 0 0 0 0 0 0 0 0 0 0 0 0 0 0 0 0 0
0 0 0 0 0 0 0 0 0 0 0 0 0 0 0 0 0 0 0 0 0 0 0 0 0 0 0 0 0 -7 0 0 0 0 0 0 0 0 0 0 0 0 0 0 0 0 0
0 0 0 0 0 0 0 0 0 0 0 0 0 0 0 0 0 0 0 0 0 0 0 0 0 0 0 0 0 0 -12 -11 0 0 0 0 0 0 0 0 0 0 0 0 0 0 0
0 0 0 0 0 0 0 0 0 0 0 0 0 0 0 0 0 0 0 0 0 0 0 0 0 0 0 0 0 0 0 -13 0 0 0 0 0 0 0 0 0 0 0 0 0 0 0
0 0 0 0 -5 0 0 0 0 0 0 0 0 0 0 0 0 0 0 0 0 0 0 0 0 0 0 0 0 -16 -26 -20 0 0 0 0 0 0 0 0 0 0 0 0 0 0 0
0 0 0 0 0 0 -1 0 0 0 0 0 0 0 0 0 0 0 0 0 0 0 0 0 0 0 0 0 -1 -31 -43 -64 -32 -1 0 0 0 0 0 0 0 0 0 0 0 0 0
0 0 0 0 0 -3 -3 0 0 0 0 0 0 0 0 0 0 0 0 0 0 0 0 -1 -1 0 -5 0 -201 -175 -140 -114 -97 -61 -35 0 0 0 0 0 0 0 0 0 0 0 0
0 0 0 0 0 -10 -7 0 0 0 -1 0 0 0 0 0 0 0 0 0 0 0 0 0 -20 -6 -18 0 0 -188 -153 -117 -89 -65 -69 -65 -12 0 0 0 0 0 0 0 0 0 0
-1 -1 0 0 0 -1 -9 -8 0 0 0 0 0 0 0 0 0 0 0 0 0 0 0 0 0 0 0 0 0 0 -121 -77 -81 -79 0 0 -8 -7 0 0 0 0 0 -13 -55 -35 -77
0 -1 -1 0 0 -2 -9 -5 0 0 0 0 0 0 0 0 0 0 0 0 0 0 0 0 0 0 0 0 0 0 -151 -98 -32 0 0 0 0 -27 0 0 0 -2 -33 -44 -35 -18 -78
0 -1 0 0 0 0 -6 -2 0 0 0 0 0 0 0 0 0 0 0 0 0 0 0 0 0 0 0 0 0 0 0 -69 -19 -59 -35 -36 -18 0 0 0 -13 -69 -99 -66 -28 -51 -87
-1 -1 0 0 0 -1 -3 -1 0 0 -1 -1 0 0 -4 -1 0 0 0 0 0 0 0 0 0 0 0 0 0 0 0 0 -17 -54 -40 -74 -61 -18 -11 -10 -11 -120 -67 -42 -51 -109 -117
0 -1 -1 -3 -1 -1 -2 -1 -1 -1 -3 -2 0 -1 -9 -1 0 0 0 0 0 0 0 0 0 0 -3 -136 -35 -60 -53 -53 -47 -22 -145 -33 -106 -111 -129 -131 -322 -405 -149 -8 0 0 -87
Wind_Speed
26 27 27 28 28 29 29 30 30 31 32 32 32 33 33 33 33 33 32 32 31 30 28 27 26 24 20 20 24 6 12 11 6 10 13 11 7 13 14 9 21 24 28 26 29 28 27
27 28 28 28 29 29 30 31 31 32 32 33 33 34 34 34 34 34 34 33 32 31 29 27 25 24 19 23 12 8 8 8 19 13 18 13 8 22 16 13 13 10 25 25 26 24 26
28 28 28 28 29 30 30 31 31 32 32 33 33 34 34 35 35 35 35 34 33 31 29 27 24 22 22 24 22 16 20 23 22 19 23 20 18 12 14 16 14 10 6 15 24 23 21
28 29 29 29 30 30 31 31 31 32 32 33 33 34 34 35 35 35 35 35 33 32 29 24 21 20 23 19 24 27 26 28 27 24 23 25 19 16 19 5 19 22 17 19 14 23 16
28 29 29 30 31 31 32 32 33 33 34 34 35 35 35 35 35 35 35 34 33 28 20 19 20 18 23 17 20 31 30 28 28 27 27 25 23 20 13 14 18 13 16 22 20 21 21
28 29 30 31 31 32 32 33 34 34 34 35 35 35 35 35 35 34 34 31 25 23 17 17 20 21 20 20 21 6 21 30 27 26 27 28 23 25 19 11 13 14 17 20 20 21 14
29 30 30 30 31 32 32 33 34 34 35 35 35 35 35 34 33 33 30 25 23 19 19 19 15 21 30 18 16 18 19 21 28 27 16 7 12 26 23 13 17 18 14 17 19 19 16
28 29 30 30 31 32 32 33 34 34 34 34 35 34 34 34 33 30 23 22 21 24 30 26 30 35 34 28 21 20 20 22 23 26 23 28 24 25 27 5 15 10 12 17 16 17 12
28 29 29 29 30 30 31 31 32 32 33 33 33 33 33 34 32 22 22 23 24 27 22 28 14 6 10 18 24 27 9 23 22 25 30 23 27 26 26 4 16 8 9 16 13 16 10
27 28 28 29 29 30 30 30 30 31 31 31 30 30 30 31 21 22 19 22 25 25 18 17 10 5 6 6 23 11 14 13 24 30 27 29 33 35 34 27 13 11 6 23 21 11 12
27 27 28 28 29 29 30 30 30 31 30 30 30 29 29 26 23 21 22 24 24 21 20 13 10 11 9 5 14 11 9 9 27 30 26 32 31 31 34 27 30 29 11 18 10 20 16
29 29 30 30 31 31 31 32 32 33 33 33 32 30 29 19 10 15 22 20 18 14 10 12 11 10 8 5 20 5 8 10 21 33 35 33 33 29 31 30 30 29 27 25 25 11 8
30 31 32 32 32 33 33 34 34 34 35 34 34 32 29 22 9 21 22 19 13 11 14 10 10 11 10 7 7 7 5 15 23 25 34 32 34 31 22 24 26 22 25 26 29 27 15
32 32 33 33 34 34 34 35 35 35 35 35 35 32 20 3 2 19 21 14 10 12 19 13 12 9 10 8 6 8 5 12 8 31 24 30 31 30 24 23 24 27 25 25 29 26 24
32 32 33 33 34 34 34 35 35 36 36 37 34 25 18 11 7 5 9 6 7 10 25 22 16 13 8 9 6 8 3 5 6 9 32 26 33 23 21 18 15 30 32 32 32 31 29
33 33 33 34 34 34 35 35 36 36 37 35 30 24 19 6 7 5 6 10 13 24 25 23 19 20 23 7 6 8 4 6 4 9 7 36 34 32 32 20 18 19 28 23 22 25 28
33 33 34 34 35 35 35 36 36 37 37 31 22 21 12 10 6 10 8 11 21 28 30 20 25 28 26 22 5 5 9 7 11 3 13 32 27 33 25 15 16 20 28 25 25 20 19
34 34 35 35 35 35 35 36 36 36 36 26 22 18 6 7 9 9 9 19 17 31 26 19 24 29 27 25 24 25 14 24 3 4 18 15 21 29 21 8 7 18 22 24 23 27 27
34 35 35 35 35 36 35 35 35 34 31 27 23 20 12 9 16 8 12 16 9 33 32 23 27 27 28 28 25 24 22 20 10 9 14 21 20 29 30 27 9 6 24 25 24 33 34
35 35 35 35 36 36 35 35 34 33 31 26 20 20 16 11 14 22 29 30 31 11 22 31 29 29 30 28 26 25 25 25 7 10 17 21 23 13 34 25 11 22 20 28 30 29 31
35 34 35 36 36 36 35 35 34 33 32 23 18 19 21 17 19 24 20 26 33 31 13 14 29 29 26 26 27 27 24 21 17 12 17 17 29 25 34 33 31 29 8 15 32 35 29
36 35 36 36 36 35 34 34 34 33 33 19 22 24 25 30 27 29 29 19 30 32 24 13 19 30 28 30 29 25 22 19 17 15 13 19 29 30 32 30 30 29 26 8 15 25 39
35 36 36 36 36 36 34 33 32 31 27 22 25 25 25 27 28 28 27 29 30 28 32 28 21 23 26 20 23 26 25 25 28 25 23 10 23 30 33 30 30 29 24 24 21 22 23
34 35 36 36 36 36 34 33 32 29 25 25 26 28 26 31 31 32 33 34 33 28 29 28 23 22 22 23 25 29 31 30 32 31 27 27 24 31 32 31 34 26 20 22 30 27 15
33 33 33 34 35 36 35 32 32 30 28 27 28 25 27 32 31 33 33 32 34 27 22 26 27 25 26 26 25 25 28 32 35 33 30 29 30 27 33 33 33 26 31 21 18 18 8
33 34 34 35 35 35 34 32 30 29 28 27 29 28 30 32 30 28 31 30 31 28 28 29 32 29 29 30 25 23 24 24 27 29 32 32 33 34 33 30 32 33 24 20 23 17 14
33 33 34 34 35 34 34 31 29 27 26 26 27 29 29 36 36 33 31 32 31 27 27 26 27 27 27 31 31 31 35 34 33 32 28 27 35 36 36 36 27 24 25 16 16 24 18
31 31 32 34 34 33 32 30 29 27 26 25 29 29 29 37 40 38 36 35 31 25 25 28 24 20 21 25 25 28 32 32 33 28 27 31 27 32 33 35 37 22 20 22 15 15 18
32 34 33 33 32 31 30 29 28 27 26 25 27 26 29 32 35 40 43 43 39 32 30 25 25 24 21 22 23 24 29 29 26 30 25 32 23 22 17 23 25 25 18 20 14 19 25
Wind_Direction
329 328 326 326 325 325 324 323 322 321 319 318 317 315 312 310 307 305 303 301 299 297 295 293 294 293 301 284 212 353 330 320 15 109 147 138 120 144 132 177 93 102 88 107 96 107 109
327 326 325 323 323 323 322 321 320 319 318 317 316 315 313 311 308 306 303 301 298 294 292 293 293 294 306 220 291 41 54 18 182 143 187 188 108 84 133 163 350 283 88 112 120 127 110
327 326 324 323 322 321 319 318 317 317 316 315 315 314 312 311 309 306 303 299 295 292 289 294 300 305 291 198 260 288 248 208 201 180 207 221 263 259 83 352 350 338 294 181 120 125 139
328 326 324 323 321 320 319 317 315 314 313 312 311 310 309 308 307 304 301 296 290 285 290 305 313 309 292 289 227 241 256 242 225 205 201 240 249 248 25 225 10 358 241 203 197 105 154
328 328 325 323 321 319 318 315 314 313 311 310 308 307 307 305 304 303 300 292 285 290 320 318 313 311 293 300 283 235 234 234 237 229 240 257 241 241 317 73 26 42 138 180 204 164 120
329 327 324 321 320 318 316 314 312 311 309 307 305 303 303 301 299 301 299 289 301 317 331 319 300 302 295 297 292 291 264 230 244 254 250 222 265 231 238 86 43 120 133 178 196 169 94
324 321 322 322 320 319 317 316 313 312 310 308 306 303 301 298 295 299 305 323 325 331 330 307 308 298 275 304 311 285 278 266 249 252 283 286 165 198 206 146 141 10 16 267 168 185 88
324 321 320 320 318 317 315 314 312 309 308 306 305 302 301 298 292 288 315 328 335 303 298 242 233 254 248 280 290 287 277 268 262 260 265 249 189 196 220 76 150 39 63 102 157 146 89
319 317 315 314 312 310 308 307 306 304 303 302 300 300 301 298 290 307 310 260 315 304 324 271 188 162 256 291 284 270 283 262 263 260 254 264 257 203 207 137 167 95 124 150 115 127 78
311 310 309 309 308 306 304 303 302 300 299 297 295 295 297 298 302 295 307 321 314 310 343 335 14 43 102 355 293 221 273 271 261 254 260 259 245 244 238 218 178 190 126 217 190 94 56
309 308 308 306 305 304 303 301 301 299 297 294 292 292 292 289 257 274 291 288 283 283 311 67 38 357 21 36 337 319 283 268 260 253 259 255 255 256 246 263 220 237 155 174 151 310 358
312 313 312 311 310 309 307 305 305 303 300 297 292 288 291 333 328 196 257 255 250 9 54 83 355 17 360 52 202 303 327 284 276 254 253 258 254 266 265 264 266 270 279 280 286 344 359
320 318 317 314 313 312 311 310 308 306 303 299 292 283 276 308 358 295 279 273 350 3 304 49 39 74 68 53 11 59 356 292 269 260 253 258 255 262 283 270 275 281 279 273 273 283 320
322 323 320 318 316 315 313 311 309 306 303 300 293 279 302 128 39 285 283 326 340 323 311 4 10 56 53 98 104 139 4 324 292 253 266 259 259 261 276 277 274 269 273 274 275 280 302
323 321 320 319 317 316 313 311 310 308 305 303 296 309 320 345 119 39 2 352 333 342 302 310 332 15 32 55 59 120 106 13 307 265 256 263 257 270 274 281 278 260 263 264 272 281 296
318 318 318 318 317 315 314 312 313 312 309 305 308 310 312 122 67 51 345 314 305 283 278 307 303 293 296 287 45 12 113 139 129 174 270 246 266 269 280 264 270 276 262 282 286 286 289
319 318 317 316 316 316 317 316 316 316 313 301 323 310 1 90 62 323 310 305 290 246 272 305 283 272 277 309 15 123 356 356 154 117 170 235 268 259 300 253 267 272 264 274 282 293 297
318 318 318 317 318 317 317 318 319 321 320 326 311 313 13 4 331 323 299 291 294 251 259 316 283 261 273 277 298 280 328 278 113 350 277 272 278 264 282 275 288 280 270 266 273 272 277
318 318 317 317 318 319 318 318 319 322 330 320 308 306 308 327 310 305 305 299 219 244 261 296 270 271 260 274 288 295 290 304 345 330 295 277 272 261 262 270 270 294 267 267 270 259 259
316 316 317 316 315 314 315 316 315 318 320 319 309 306 303 302 310 292 283 279 275 297 295 268 271 271 268 277 278 281 267 286 359 332 313 281 273 269 248 259 272 273 275 259 260 265 262
316 316 317 315 311 311 311 311 311 312 311 314 303 292 313 299 299 292 292 283 272 279 295 304 268 269 274 274 265 270 283 306 299 326 305 277 254 258 233 248 252 267 191 279 258 255 265
312 312 312 313 312 311 311 309 308 309 307 303 294 297 295 283 287 282 278 281 277 270 283 291 292 261 268 260 272 282 291 301 313 304 327 279 250 245 253 259 252 258 258 221 273 266 248
310 309 309 308 308 309 309 310 307 307 309 295 295 296 289 278 277 279 276 278 278 279 269 273 281 272 270 291 289 279 280 277 265 261 270 318 261 248 243 252 257 275 269 275 285 269 275
312 311 309 307 306 306 306 306 305 302 303 293 289 289 283 273 273 269 276 277 272 282 273 274 286 276 290 296 293 280 270 266 260 244 243 253 267 239 241 248 246 275 279 268 251 276 275
311 310 309 308 306 304 304 303 301 296 295 289 285 282 279 273 273 270 277 279 279 280 287 278 275 279 289 288 285 282 269 261 240 241 222 229 236 258 237 250 252 276 256 279 285 282 311
309 307 305 304 303 302 302 301 299 293 291 290 281 276 277 271 265 279 274 279 278 279 278 276 272 277 274 267 276 277 267 267 260 258 230 216 226 231 239 256 249 226 260 287 276 284 276
310 306 304 303 301 299 298 297 295 293 290 288 278 277 277 267 263 269 267 271 279 278 276 279 286 279 267 263 267 266 257 252 255 260 274 267 240 219 232 244 273 272 271 279 286 263 277
311 309 305 302 299 298 295 294 291 288 286 287 276 277 275 268 266 264 268 265 271 274 274 280 280 280 279 266 266 267 258 256 261 272 276 257 264 247 253 255 254 275 288 272 276 275 279
308 305 302 300 297 294 292 291 290 287 282 283 277 280 286 270 267 271 264 260 257 266 271 272 268 272 285 275 272 270 261 264 269 261 274 255 264 269 278 280 286 273 280 279 291 273 262